Vorticity
13 13 12 12 11 11 10 9 8 7 8 9 10 10 8 7 6 5 4 3 3 3 3 5 7 10 14 17 16 11 7 5 5 4 8 10 6 6 9 8 9 11 12 13 11 11 10 9 9 10 10 8 7 5 5 4 4 5 6 6 7 6 4 5 4 4 5 5 5 5 6 6 6 7 6 6 5 4 4 4 5 4 5 8 10 12 11 8
13 13 13 13 12 12 11 10 9 9 9 9 9 10 10 9 8 6 6 4 4 3 3 4 6 8 10 15 17 14 10 7 4 4 7 8 6 7 9 9 10 10 12 12 11 10 10 9 9 10 8 6 6 6 5 4 5 5 5 6 6 3 4 5 4 5 4 5 5 4 5 6 5 6 6 6 4 4 4 4 5 6 6 8 11 11 10 6
11 11 12 13 13 12 12 11 10 10 10 10 10 10 10 10 9 9 7 6 5 4 4 4 5 7 8 12 16 16 12 9 5 3 6 7 7 9 9 10 10 9 10 10 10 10 10 10 9 9 8 6 6 6 4 4 5 4 5 6 3 1 4 4 3 4 4 5 5 4 5 5 5 6 6 5 5 5 5 5 6 7 6 8 11 11 8 6
10 11 11 12 13 14 13 13 12 11 9 9 10 10 10 10 10 9 8 7 6 6 5 5 6 6 7 9 15 17 15 12 6 2 7 8 7 9 9 9 9 8 8 9 10 10 10 10 8 8 7 6 6 5 4 5 4 4 7 6 1 3 6 4 3 4 4 5 5 4 5 6 6 6 6 6 6 6 6 7 7 7 7 9 11 10 8 8
8 8 9 10 11 13 14 14 14 13 11 10 9 9 9 9 9 9 9 8 7 6 6 6 6 6 7 7 12 17 16 14 8 3 6 9 7 8 9 8 8 8 8 8 9 9 9 9 7 7 7 7 7 5 5 5 4 6 7 3 2 5 5 4 4 5 4 5 5 5 5 5 6 6 6 6 5 6 8 9 9 9 9 10 9 9 9 8
6 6 7 7 7 8 10 12 14 15 14 12 11 10 9 8 9 9 9 9 8 8 7 6 6 6 7 7 9 14 17 14 9 6 6 7 8 8 9 9 8 8 9 8 8 8 8 8 7 7 7 7 6 6 7 6 6 8 6 4 5 5 4 5 5 6 6 6 6 5 5 6 6 6 6 7 7 8 9 10 10 8 7 8 9 10 8 6
7 6 6 5 5 5 6 7 8 10 12 13 13 12 11 10 9 9 9 9 9 8 8 7 7 7 7 8 9 11 16 16 11 8 6 4 7 9 9 10 9 9 9 8 8 8 8 8 7 7 7 8 7 6 6 5 7 8 6 6 6 6 6 6 5 6 6 6 5 6 6 6 6 5 6 7 7 8 10 10 9 7 5 5 9 9 6 5
7 6 5 5 5 6 7 7 6 6 6 8 10 11 11 11 10 9 9 9 8 8 8 7 7 8 7 8 8 10 16 17 12 8 7 5 6 9 10 10 10 10 10 8 8 8 7 7 7 7 7 8 8 7 5 4 7 9 8 7 5 6 5 4 5 6 6 5 6 7 7 7 6 6 7 7 8 9 9 8 7 7 6 5 5 6 5 6
7 6 5 4 4 6 8 9 10 9 7 6 6 8 9 9 10 10 9 8 8 7 7 7 7 7 8 9 8 12 15 15 14 9 6 7 6 8 9 10 11 10 10 9 8 8 7 9 10 9 8 8 8 7 6 6 8 8 6 5 4 4 3 4 7 7 7 7 7 8 9 7 6 8 8 7 8 8 8 6 6 7 8 6 5 5 5 7
7 6 6 5 5 5 7 10 12 13 11 9 8 7 6 6 7 8 8 7 7 7 6 7 7 7 9 9 9 14 13 12 17 11 5 7 6 8 9 8 10 10 10 10 10 10 8 9 10 9 8 7 7 6 6 7 8 5 0 -0 0 2 3 6 8 8 9 9 9 9 9 7 7 10 9 7 8 6 6 7 8 9 8 8 8 5 5 9
9 9 7 6 6 6 7 10 13 14 14 12 11 10 9 8 6 6 7 7 7 6 7 7 6 9 9 8 11 16 12 11 17 13 6 6 5 9 10 7 8 10 10 9 9 10 8 7 8 9 8 8 7 7 6 5 5 2 -0 2 5 5 5 6 7 8 9 9 9 10 8 7 10 12 9 7 7 5 5 7 9 10 10 10 8 7 8 11
12 11 10 8 7 7 9 11 13 15 15 14 13 13 12 10 9 9 8 8 8 7 8 8 7 9 8 9 15 15 9 9 15 15 8 4 5 8 11 9 7 9 11 9 8 8 8 8 8 7 8 7 6 6 4 4 4 2 2 6 7 7 6 7 8 7 9 10 9 10 8 9 11 10 7 6 6 4 5 8 9 11 13 13 11 11 10 10
12 12 11 10 8 8 10 12 13 15 17 15 14 14 13 13 12 11 11 11 10 9 10 9 9 9 7 13 17 10 9 12 15 16 9 4 6 8 10 10 8 8 8 9 10 8 7 8 7 6 6 6 5 4 3 4 6 4 5 6 4 5 7 8 9 8 9 9 9 9 9 9 7 7 7 4 3 5 7 10 11 12 12 11 11 10 8 8
11 11 10 10 11 11 13 14 14 16 17 16 14 14 14 14 13 13 13 13 11 11 11 10 10 8 9 16 13 6 12 15 12 14 10 5 6 7 9 10 9 7 5 8 10 9 10 9 6 6 5 5 5 5 5 6 6 4 5 6 5 7 9 8 7 8 8 8 9 9 10 10 7 9 6 2 6 9 11 15 14 12 10 9 8 7 7 8
10 11 12 13 14 14 16 16 16 17 17 17 15 16 16 15 15 14 14 14 13 12 11 11 10 9 13 16 10 7 14 16 12 12 11 7 5 7 9 10 9 7 5 7 8 7 10 10 8 7 6 6 6 5 7 7 6 4 4 7 7 8 9 7 7 7 8 8 9 7 9 12 11 10 6 6 11 10 10 13 10 8 8 9 9 8 9 10
12 14 15 16 16 17 17 16 16 17 18 17 17 17 16 15 16 15 14 15 13 13 12 11 11 11 14 12 9 11 13 13 13 11 10 8 5 7 9 9 8 7 7 7 6 7 9 9 8 8 7 6 6 6 6 6 5 4 5 8 7 8 9 6 6 7 8 8 7 7 8 11 11 8 6 9 10 7 8 10 8 8 8 8 10 10 11 10
15 16 17 18 17 17 18 18 18 18 18 18 18 18 17 17 17 16 15 15 14 13 13 11 11 12 12 11 11 14 12 12 14 10 8 8 7 7 8 9 8 7 9 8 5 6 7 7 7 8 8 8 7 6 4 4 5 6 7 8 7 9 10 9 8 5 7 7 6 9 6 6 8 4 4 4 -0 -1 3 5 5 6 6 5 9 13 12 9
18 18 18 19 18 19 20 20 19 20 19 20 20 20 19 18 18 17 15 15 13 11 11 11 12 12 12 13 13 12 11 12 14 9 8 9 8 5 6 9 8 7 10 8 5 6 6 6 6 7 8 8 7 6 6 6 9 9 10 11 9 10 12 13 10 5 6 4 7 11 2 2 6 1 1 1 -2 2 7 10 12 12 11 9 10 12 10 6
18 18 20 21 21 22 23 22 22 22 23 24 22 20 19 18 16 16 14 14 13 12 13 13 12 13 14 14 12 11 12 14 13 10 10 10 10 8 7 9 8 7 10 9 7 7 6 6 6 5 6 7 7 7 9 10 10 11 13 14 13 13 15 12 8 8 7 2 7 9 -1 1 6 0 2 6 10 15 16 17 19 19 17 17 16 10 5 4
19 21 23 24 25 25 25 25 26 25 25 23 21 19 18 18 16 15 14 13 13 13 13 13 12 11 12 12 11 10 12 13 12 10 11 11 10 10 9 11 10 9 10 9 8 8 7 6 6 6 7 7 8 9 9 11 11 12 13 13 12 14 14 10 7 9 7 5 6 3 1 5 3 0 8 15 18 15 10 9 7 7 9 11 11 7 5 5
23 25 26 29 30 28 26 26 24 22 21 19 17 18 18 16 15 15 15 13 14 14 12 12 13 11 11 11 10 10 10 12 11 9 11 10 10 12 10 11 11 10 11 9 8 8 7 6 5 7 7 7 8 10 11 13 13 13 12 10 8 11 12 10 8 5 4 8 7 3 8 8 2 6 15 16 14 8 5 5 1 -0 0 0 -0 2 7 9
25 28 32 31 28 27 24 21 19 17 16 17 17 16 16 15 15 15 16 16 15 14 12 12 13 12 13 12 10 11 10 11 11 10 12 9 9 14 13 10 11 11 11 10 8 7 6 5 4 6 8 8 9 10 12 12 10 9 9 8 7 10 12 10 7 4 5 9 11 11 12 6 5 14 15 9 6 4 4 4 2 2 1 0 -1 -1 3 4
27 33 33 23 18 21 20 16 17 17 13 12 13 13 14 13 14 16 16 15 15 14 12 12 14 12 12 12 12 11 9 11 12 11 13 9 9 16 16 12 12 13 10 8 8 6 5 4 3 6 10 10 10 12 12 9 6 7 6 6 9 11 10 8 6 6 11 15 17 16 9 5 9 13 9 4 4 4 4 2 2 5 5 6 6 5 4 1
27 31 21 12 14 12 13 16 14 16 13 8 9 11 14 14 13 17 16 14 14 14 12 11 12 11 9 9 11 9 9 11 11 12 13 10 10 14 16 12 12 15 10 6 9 8 5 4 5 8 12 12 10 10 10 8 7 8 6 6 9 10 8 6 5 9 19 19 14 12 7 5 7 7 4 3 4 5 4 4 4 6 9 9 10 9 6 1
15 16 7 9 20 13 15 16 2 6 11 11 16 14 12 13 11 14 16 13 13 12 13 12 10 11 10 8 8 8 10 11 10 12 13 12 14 15 16 13 10 14 11 6 11 10 5 6 9 11 12 12 10 9 8 8 9 7 7 9 9 10 10 8 7 13 19 14 6 7 5 3 3 3 3 1 2 3 1 0 2 4 8 8 6 4 2 3
3 10 10 10 15 11 17 13 1 17 22 11 19 18 11 10 7 10 13 12 12 10 11 13 9 10 11 8 9 10 10 12 13 13 12 12 14 13 14 13 10 14 15 11 11 9 6 9 12 11 10 10 9 7 6 8 7 7 11 13 11 11 11 9 9 12 12 6 4 6 2 1 4 5 2 -0 2 2 0 2 5 5 5 6 8 9 9 10
-0 7 15 16 14 9 12 6 4 29 27 6 14 19 9 6 4 7 11 11 12 10 9 13 9 9 13 10 9 12 12 12 13 13 13 14 14 11 10 10 9 14 18 16 13 8 8 12 13 11 9 8 7 4 5 7 8 12 16 15 13 13 10 8 9 10 9 5 3 2 -0 2 5 4 1 2 3 3 4 9 9 7 6 7 12 15 15 11
5 5 9 15 17 12 11 7 3 13 10 1 17 22 7 2 3 8 13 9 10 12 8 10 10 7 11 12 10 14 17 17 18 18 13 12 15 14 10 8 9 17 22 20 15 11 11 15 14 12 10 7 7 6 6 7 11 18 19 15 14 12 7 6 7 8 8 5 1 -1 0 2 0 1 4 5 5 4 6 10 8 6 9 9 7 8 10 10
9 8 7 10 14 12 10 10 7 11 8 2 14 20 6 3 7 12 14 6 7 16 10 5 10 7 7 13 15 14 14 14 19 23 17 9 12 14 12 12 13 17 19 14 13 15 15 16 14 12 9 5 7 9 5 7 15 20 15 12 12 9 4 4 4 4 3 3 2 0 -0 1 -1 1 4 3 3 6 8 8 5 5 7 4 -0 1 4 7
8 9 9 9 8 8 12 16 13 13 11 7 13 16 8 7 10 11 15 6 3 16 14 5 10 11 8 13 19 15 10 9 12 18 18 13 14 14 11 14 16 16 14 6 8 14 12 12 12 9 7 5 6 8 3 4 14 17 10 7 8 5 3 4 4 4 2 2 6 4 2 2 2 2 2 0 3 7 7 4 3 2 1 1 1 2 2 3
9 8 6 5 6 12 21 25 20 12 11 16 18 13 8 10 10 9 14 10 3 14 19 10 11 16 12 14 20 17 8 6 8 11 15 13 13 14 10 12 14 12 9 5 7 11 8 9 10 6 7 7 6 6 2 1 7 9 6 6 6 3 5 6 5 4 3 4 7 5 3 2 1 1 0 2 6 7 4 4 5 2 0 1 3 5 7 5
6 7 7 11 17 22 23 24 26 22 19 22 18 10 8 11 14 13 16 15 10 18 23 17 17 17 10 11 20 21 11 5 7 10 13 12 11 13 12 13 15 11 7 6 8 9 8 8 6 4 7 7 6 6 5 4 6 6 4 5 5 3 5 5 3 2 3 4 5 3 2 -0 0 3 1 1 6 6 4 5 7 6 3 2 2 2 3 5
14 17 20 23 23 23 24 26 28 22 18 17 12 9 8 12 19 19 20 16 7 16 24 18 17 13 7 10 15 18 15 10 10 12 12 11 11 13 14 12 14 15 13 12 11 8 8 9 5 4 7 7 7 7 7 8 11 10 5 3 4 2 4 5 0 -1 1 2 2 1 2 0 1 4 1 0 6 5 1 2 4 5 4 4 9 12 8 4
22 23 24 22 19 22 26 24 18 12 11 11 8 11 11 16 22 14 18 16 -2 9 26 16 11 10 9 11 11 12 14 11 12 14 14 11 9 10 11 9 9 13 16 15 12 10 9 9 8 8 9 8 9 11 12 11 13 16 12 7 5 3 5 7 3 2 3 2 1 1 1 2 2 2 0 2 5 3 1 1 1 1 3 4 10 20 21 11
22 21 19 16 16 21 19 12 9 9 13 12 12 16 14 19 20 3 9 12 -5 11 29 15 9 11 9 9 8 12 14 11 10 12 14 15 13 11 8 6 4 7 15 14 11 13 12 10 11 12 11 11 11 14 14 11 11 15 16 14 12 7 5 5 3 3 3 1 1 0 -0 2 3 1 1 3 3 1 3 4 3 2 4 4 2 8 17 16
19 17 16 14 15 18 12 8 11 12 16 16 16 19 14 16 13 -3 4 8 3 23 28 13 14 13 8 8 7 10 13 12 12 10 11 13 15 15 11 9 6 5 13 12 8 12 14 12 12 11 13 13 10 11 12 12 11 12 13 15 17 14 8 3 0 -1 -2 -3 -0 1 1 3 4 1 2 4 2 2 4 3 4 3 1 4 3 2 7 10
17 15 15 13 15 16 11 11 14 13 18 16 13 15 9 9 5 -3 6 8 12 29 19 8 16 10 8 10 6 9 11 10 12 10 11 11 10 13 12 11 11 7 11 12 9 11 12 13 13 11 13 14 10 9 9 10 11 11 13 15 15 15 13 8 5 3 2 0 -1 2 3 2 3 2 2 4 3 2 2 0 2 2 -0 5 9 6 6 6
13 14 15 13 16 16 11 13 13 12 17 11 10 11 2 3 2 -0 12 13 18 27 10 6 15 7 8 11 8 15 11 8 12 9 12 15 10 11 10 11 14 11 9 8 7 10 10 10 12 12 13 12 10 10 8 8 9 8 11 14 13 12 14 15 12 10 10 6 0 1 3 1 3 4 2 3 3 1 1 1 1 3 5 10 12 9 8 8
11 13 15 15 18 15 10 13 11 12 16 9 10 8 -3 4 5 1 11 15 22 25 7 7 13 3 8 10 10 19 12 10 16 11 13 17 12 11 9 10 16 16 13 8 5 8 10 9 8 10 10 8 8 9 8 8 9 5 1 6 9 8 10 13 12 12 12 9 5 2 2 2 2 4 3 2 2 0 1 3 5 9 12 12 11 11 10 9
10 11 15 18 18 12 9 12 11 14 14 8 11 6 -1 7 5 3 13 17 27 26 8 10 9 -1 7 7 7 17 11 9 15 9 9 11 8 11 10 7 12 16 18 15 8 6 10 10 6 6 7 6 6 6 7 8 8 7 3 1 3 3 5 8 7 9 10 10 10 6 5 5 4 4 5 4 5 5 5 8 10 12 12 9 8 10 12 10
10 11 16 20 15 9 9 9 11 16 11 8 10 4 5 8 -2 5 16 15 24 20 6 12 8 -1 7 6 7 16 10 6 8 6 9 7 4 10 12 9 10 13 16 17 13 7 8 11 9 7 7 6 5 4 6 8 7 11 12 9 8 7 7 8 9 11 12 10 11 9 9 11 9 6 6 6 9 11 12 13 12 12 10 9 11 14 14 13
10 9 15 20 13 8 10 10 12 15 7 7 9 3 10 5 -8 5 14 11 22 15 5 15 11 4 9 6 9 14 5 5 7 6 11 9 5 10 14 12 11 13 14 16 18 13 10 12 9 7 7 6 7 6 6 9 9 10 12 11 12 13 11 11 12 15 16 16 16 13 12 14 14 14 12 11 13 12 12 12 11 13 13 13 15 15 13 12
7 7 15 19 13 9 11 11 13 12 4 7 8 5 12 2 -9 7 12 9 19 11 6 17 12 8 11 5 8 9 1 7 10 7 10 8 5 9 13 12 12 14 14 14 17 14 11 12 8 6 8 6 8 8 7 8 8 8 10 7 7 10 11 10 11 14 16 16 17 17 15 12 11 14 14 11 9 6 6 8 9 10 12 14 15 14 12 12
4 8 14 16 15 13 12 12 12 8 3 8 6 6 14 1 -8 10 14 8 13 6 6 15 9 9 11 5 7 6 3 8 9 7 10 8 6 7 9 12 12 14 15 14 15 13 10 12 9 5 6 4 6 8 7 6 3 5 9 10 8 7 6 6 7 11 13 12 13 14 15 10 6 9 13 12 11 10 10 11 10 10 11 14 13 10 10 10
1 8 14 13 16 17 13 11 10 6 4 8 6 7 14 1 -9 9 17 9 8 4 5 10 7 9 9 4 8 7 6 9 7 6 10 8 7 7 8 11 11 13 15 13 14 14 10 11 11 7 5 5 6 7 6 5 3 3 4 6 7 5 3 4 5 9 12 11 11 11 11 11 9 9 11 11 12 13 13 13 13 12 10 9 7 6 6 7
1 9 12 11 14 16 15 10 8 7 6 8 7 6 13 3 -11 4 20 12 5 3 4 6 6 8 7 4 7 8 7 9 5 5 9 8 7 8 8 10 10 12 14 13 13 14 11 9 10 10 8 8 8 5 4 3 3 5 6 7 9 7 4 4 4 8 12 11 10 11 10 9 11 11 10 10 12 12 13 13 12 8 5 5 8 8 7 7
2 8 11 13 12 12 14 11 8 9 7 9 7 2 13 13 -6 -1 16 13 4 0 1 4 4 5 8 8 7 5 5 7 5 4 7 7 6 6 7 8 9 10 12 12 14 15 13 9 8 10 9 8 8 5 5 6 5 4 6 9 11 12 12 10 7 9 12 9 6 6 6 5 7 11 13 13 12 12 11 12 11 8 5 6 8 9 8 8
1 8 17 22 14 7 11 11 10 10 7 10 7 -2 11 20 0 -3 12 12 4 -1 0 7 6 3 9 13 10 6 3 4 6 6 6 7 8 7 6 6 8 11 12 11 11 13 14 11 9 9 7 6 8 7 6 8 7 3 4 6 9 10 12 13 12 12 13 11 7 5 6 6 6 7 8 8 7 7 6 7 9 9 6 5 5 6 8 10
1 6 18 26 16 7 10 12 12 11 7 11 8 -4 10 23 5 -3 10 13 7 3 3 8 6 1 6 13 12 9 6 3 5 8 6 6 7 7 6 3 2 8 14 15 14 13 13 13 12 11 7 3 6 10 10 8 4 3 3 4 5 4 4 6 8 10 13 12 8 5 5 6 5 2 -0 1 3 2 2 3 8 10 11 13 11 8 8 10
4 2 11 25 20 12 13 13 14 12 9 13 9 -4 7 24 10 -1 9 15 10 7 6 4 -0 -5 0 7 8 8 9 4 2 5 5 4 5 6 7 5 0 1 6 11 13 14 13 13 13 14 12 4 -0 4 7 6 5 5 4 3 1 -1 3 9 6 5 13 14 9 7 6 4 4 2 -0 0 1 2 3 5 9 13 17 19 18 12 7 5
9 2 9 26 25 16 15 13 12 14 12 11 7 -1 5 20 15 1 7 14 7 2 4 3 0 0 3 8 8 6 8 6 1 2 3 2 4 4 5 7 5 3 3 5 7 10 12 13 13 15 15 8 1 -1 -0 1 6 9 7 6 4 -0 3 13 10 3 7 11 9 9 8 7 6 4 1 1 4 8 9 7 9 15 14 11 14 20 17 10
11 4 12 26 24 16 14 12 10 12 11 5 3 3 2 11 16 6 3 11 6 1 4 4 4 7 7 9 10 8 8 7 2 1 1 0 2 3 4 5 6 5 5 6 6 8 11 11 12 16 18 15 10 7 3 0 1 4 5 7 9 5 1 6 10 8 5 5 6 8 9 8 8 5 2 4 9 11 9 6 7 12 12 4 4 15 22 19
Height
5710 5710 5711 5711 5712 5713 5714 5715 5716 5718 5719 5721 5722 5723 5725 5726 5727 5729 5730 5732 5733 5735 5736 5737 5739 5740 5741 5743 5745 5747 5750 5753 5755 5760 5761 5758 5760 5764 5765 5767 5770 5772 5774 5775 5777 5779 5781 5784 5787 5789 5792 5794 5797 5799 5802 5804 5807 5809 5811 5813 5815 5816 5817 5818 5820 5821 5822 5823 5824 5825 5827 5828 5830 5831 5833 5835 5836 5837 5837 5838 5838 5838 5839 5840 5840 5840 5840 5841
5704 5705 5705 5705 5706 5707 5708 5709 5710 5712 5713 5714 5716 5717 5719 5720 5722 5724 5725 5727 5728 5730 5731 5733 5734 5735 5737 5739 5741 5743 5746 5748 5752 5757 5755 5753 5758 5761 5762 5765 5767 5769 5771 5772 5773 5776 5778 5780 5783 5786 5789 5791 5794 5796 5799 5802 5804 5806 5808 5810 5812 5813 5814 5815 5817 5818 5819 5821 5822 5823 5825 5826 5828 5830 5831 5833 5834 5834 5835 5835 5836 5836 5837 5837 5837 5838 5838 5839
5699 5699 5699 5700 5700 5701 5702 5703 5704 5706 5707 5708 5710 5711 5713 5715 5716 5718 5720 5721 5723 5725 5726 5728 5729 5731 5733 5735 5737 5739 5741 5744 5749 5752 5750 5751 5756 5757 5759 5762 5764 5766 5768 5769 5771 5773 5775 5778 5780 5783 5786 5789 5791 5794 5796 5799 5802 5804 5806 5808 5809 5810 5811 5812 5814 5816 5817 5819 5819 5821 5823 5825 5827 5828 5829 5831 5832 5832 5833 5833 5834 5834 5834 5835 5835 5836 5836 5836
5693 5693 5694 5694 5695 5695 5696 5697 5698 5700 5701 5702 5704 5705 5707 5708 5710 5712 5714 5716 5718 5719 5721 5723 5724 5726 5729 5731 5733 5734 5737 5740 5745 5747 5746 5750 5751 5753 5757 5759 5761 5762 5764 5767 5769 5771 5773 5775 5778 5781 5784 5786 5789 5792 5794 5797 5799 5801 5803 5805 5806 5806 5807 5810 5812 5813 5815 5816 5817 5819 5821 5823 5824 5826 5827 5828 5830 5831 5831 5832 5832 5831 5832 5833 5834 5834 5834 5834
5687 5688 5688 5688 5689 5689 5690 5691 5692 5693 5695 5696 5698 5699 5701 5702 5704 5706 5708 5710 5712 5714 5715 5717 5719 5722 5724 5726 5728 5730 5733 5736 5740 5742 5743 5746 5747 5750 5753 5755 5757 5759 5761 5764 5766 5768 5770 5772 5775 5778 5781 5784 5787 5789 5792 5794 5797 5799 5800 5801 5802 5804 5805 5807 5809 5811 5812 5814 5815 5817 5819 5820 5822 5824 5825 5826 5828 5829 5830 5830 5830 5829 5829 5831 5831 5832 5832 5832
5682 5682 5682 5683 5683 5684 5684 5685 5686 5687 5689 5690 5691 5693 5694 5696 5698 5700 5702 5704 5706 5708 5710 5712 5714 5717 5719 5721 5724 5726 5729 5732 5735 5738 5740 5742 5744 5746 5749 5752 5754 5756 5758 5761 5764 5766 5767 5770 5772 5775 5778 5781 5784 5787 5789 5791 5793 5795 5796 5797 5799 5801 5803 5805 5806 5808 5810 5812 5813 5815 5817 5819 5820 5821 5823 5824 5825 5827 5828 5828 5828 5828 5828 5828 5828 5829 5829 5829
5676 5676 5676 5677 5677 5678 5679 5679 5680 5681 5682 5684 5685 5687 5688 5690 5692 5694 5696 5698 5701 5703 5705 5707 5709 5712 5714 5717 5719 5722 5725 5728 5730 5733 5736 5738 5740 5742 5746 5748 5750 5753 5755 5757 5760 5763 5765 5767 5770 5772 5775 5778 5781 5783 5785 5787 5790 5792 5793 5794 5796 5799 5801 5802 5804 5805 5808 5809 5811 5813 5815 5817 5817 5818 5820 5822 5823 5824 5825 5825 5826 5826 5825 5825 5826 5826 5826 5826
5669 5669 5670 5670 5671 5671 5672 5673 5674 5675 5676 5677 5679 5680 5682 5684 5686 5688 5690 5693 5695 5697 5699 5701 5704 5707 5709 5712 5715 5718 5722 5723 5724 5729 5733 5734 5736 5739 5742 5745 5747 5750 5752 5754 5757 5759 5762 5764 5767 5769 5771 5774 5777 5779 5781 5784 5786 5788 5790 5792 5794 5796 5798 5800 5802 5803 5806 5807 5809 5812 5813 5814 5815 5816 5818 5819 5820 5821 5822 5822 5823 5823 5823 5823 5823 5823 5823 5824
5663 5663 5663 5663 5664 5664 5665 5666 5667 5668 5670 5671 5672 5674 5676 5678 5680 5682 5685 5687 5689 5691 5693 5696 5699 5701 5704 5707 5710 5714 5717 5718 5720 5725 5729 5730 5732 5735 5738 5741 5744 5746 5748 5751 5753 5756 5759 5761 5763 5766 5768 5771 5773 5775 5777 5780 5783 5785 5786 5789 5791 5793 5795 5798 5800 5802 5804 5806 5808 5810 5811 5812 5812 5814 5815 5816 5816 5817 5819 5820 5821 5821 5821 5821 5821 5820 5821 5821
5655 5656 5656 5656 5657 5657 5658 5659 5660 5661 5662 5664 5665 5667 5669 5671 5674 5676 5679 5681 5683 5685 5687 5690 5693 5696 5699 5702 5706 5710 5712 5713 5716 5721 5724 5726 5728 5731 5734 5737 5740 5742 5745 5748 5750 5753 5755 5757 5760 5763 5765 5767 5770 5772 5774 5777 5780 5781 5783 5786 5788 5791 5793 5796 5798 5800 5802 5804 5806 5807 5808 5809 5810 5812 5813 5812 5812 5814 5816 5818 5818 5819 5819 5819 5818 5818 5819 5819
5648 5648 5648 5649 5649 5650 5650 5651 5652 5653 5655 5656 5658 5660 5662 5665 5667 5670 5672 5674 5677 5679 5682 5685 5688 5691 5694 5697 5702 5705 5706 5709 5712 5716 5719 5722 5724 5727 5730 5733 5736 5739 5742 5744 5746 5748 5750 5753 5757 5760 5762 5764 5767 5769 5771 5775 5776 5778 5781 5783 5786 5789 5791 5793 5795 5798 5800 5802 5803 5805 5806 5807 5809 5811 5809 5807 5809 5812 5814 5815 5816 5817 5817 5817 5816 5816 5816 5816
5640 5640 5640 5641 5641 5642 5643 5643 5644 5646 5647 5649 5651 5653 5655 5657 5660 5663 5665 5668 5671 5673 5676 5679 5682 5686 5688 5693 5698 5699 5701 5704 5707 5711 5715 5718 5720 5724 5727 5730 5733 5736 5739 5741 5742 5744 5747 5750 5754 5756 5759 5762 5764 5765 5768 5771 5773 5775 5778 5781 5784 5786 5788 5791 5793 5796 5798 5799 5800 5802 5804 5805 5809 5808 5805 5805 5808 5810 5812 5813 5814 5814 5815 5815 5814 5814 5813 5813
5632 5632 5633 5633 5633 5634 5635 5635 5636 5638 5639 5641 5643 5645 5648 5650 5653 5656 5659 5662 5664 5667 5670 5673 5677 5680 5683 5690 5693 5693 5696 5700 5703 5707 5710 5714 5717 5720 5723 5726 5729 5732 5735 5737 5739 5741 5744 5747 5751 5753 5756 5759 5760 5762 5765 5768 5771 5773 5776 5779 5781 5783 5786 5788 5791 5793 5795 5796 5798 5800 5801 5804 5805 5803 5802 5804 5806 5808 5810 5811 5812 5813 5813 5812 5812 5811 5811 5811
5625 5624 5625 5625 5625 5626 5627 5628 5629 5630 5632 5634 5636 5638 5640 5643 5646 5649 5652 5655 5658 5661 5664 5667 5671 5674 5679 5685 5686 5687 5692 5696 5699 5703 5706 5710 5713 5716 5719 5721 5724 5727 5730 5732 5735 5739 5742 5745 5748 5750 5753 5756 5757 5760 5763 5766 5768 5770 5773 5776 5778 5781 5783 5786 5788 5790 5791 5793 5795 5797 5799 5802 5800 5798 5800 5803 5804 5806 5808 5809 5811 5811 5811 5810 5809 5809 5809 5810
5617 5617 5617 5617 5617 5618 5619 5620 5621 5622 5624 5626 5629 5631 5633 5636 5639 5642 5645 5649 5653 5656 5659 5662 5666 5670 5675 5680 5681 5683 5688 5692 5696 5698 5701 5705 5708 5711 5714 5717 5720 5723 5726 5729 5732 5735 5738 5742 5745 5748 5750 5753 5755 5758 5761 5763 5766 5768 5770 5773 5775 5778 5781 5783 5785 5786 5788 5789 5791 5794 5797 5799 5795 5795 5799 5801 5803 5804 5806 5808 5809 5808 5808 5808 5808 5807 5808 5808
5609 5609 5609 5609 5609 5610 5611 5612 5613 5615 5617 5619 5622 5624 5626 5629 5632 5636 5639 5643 5647 5650 5653 5657 5661 5665 5670 5674 5676 5678 5684 5688 5690 5693 5697 5700 5702 5706 5709 5713 5716 5719 5722 5725 5728 5732 5735 5739 5742 5745 5748 5750 5753 5756 5758 5761 5763 5766 5768 5770 5773 5776 5779 5780 5781 5782 5783 5785 5788 5790 5794 5795 5792 5793 5797 5799 5801 5802 5804 5805 5805 5805 5806 5806 5806 5806 5807 5807
5601 5601 5601 5601 5602 5602 5604 5605 5606 5608 5610 5613 5615 5617 5620 5623 5626 5630 5634 5638 5641 5645 5649 5653 5656 5661 5665 5669 5671 5674 5679 5683 5685 5688 5692 5695 5698 5702 5705 5709 5712 5715 5718 5722 5725 5729 5732 5736 5739 5742 5745 5748 5750 5753 5755 5758 5761 5763 5766 5768 5771 5773 5776 5776 5776 5778 5780 5782 5785 5787 5791 5792 5790 5792 5796 5798 5799 5801 5802 5802 5802 5803 5804 5804 5804 5805 5805 5805
5594 5593 5594 5594 5594 5595 5596 5598 5600 5602 5604 5606 5608 5611 5614 5617 5620 5624 5628 5632 5636 5640 5644 5648 5652 5657 5662 5665 5667 5670 5674 5678 5680 5684 5687 5690 5693 5697 5701 5704 5708 5711 5715 5719 5722 5725 5728 5732 5736 5739 5742 5745 5748 5750 5753 5756 5759 5762 5764 5766 5768 5770 5772 5773 5773 5774 5777 5779 5782 5786 5791 5791 5790 5792 5795 5796 5798 5799 5798 5798 5799 5801 5802 5802 5803 5803 5803 5804
5587 5587 5587 5587 5588 5589 5590 5592 5594 5596 5598 5600 5603 5605 5609 5612 5615 5618 5623 5627 5631 5636 5641 5645 5649 5654 5658 5661 5663 5666 5671 5674 5676 5679 5683 5687 5690 5693 5697 5700 5704 5708 5712 5716 5719 5722 5725 5729 5733 5736 5740 5743 5745 5748 5751 5754 5757 5759 5761 5763 5765 5767 5769 5770 5770 5771 5774 5778 5781 5785 5789 5789 5788 5790 5792 5793 5795 5795 5795 5796 5797 5799 5800 5801 5801 5802 5801 5802
5580 5580 5580 5581 5582 5583 5585 5586 5589 5591 5594 5596 5598 5601 5604 5607 5610 5614 5618 5623 5629 5633 5637 5641 5645 5649 5653 5656 5658 5662 5667 5670 5672 5675 5679 5683 5687 5690 5694 5697 5701 5705 5709 5713 5716 5719 5722 5726 5730 5735 5738 5740 5742 5745 5748 5751 5753 5755 5758 5760 5762 5765 5766 5766 5767 5769 5772 5776 5780 5783 5785 5785 5786 5788 5790 5791 5791 5791 5792 5793 5794 5796 5797 5798 5799 5800 5800 5800
5574 5575 5575 5576 5577 5578 5580 5582 5585 5587 5590 5592 5595 5597 5599 5603 5607 5611 5616 5622 5626 5629 5634 5638 5641 5645 5649 5652 5655 5658 5663 5666 5669 5671 5675 5679 5683 5687 5690 5694 5698 5702 5706 5709 5712 5716 5720 5724 5728 5731 5734 5736 5739 5742 5745 5748 5750 5753 5755 5757 5759 5762 5763 5764 5765 5767 5770 5775 5778 5780 5781 5782 5783 5786 5787 5787 5788 5788 5789 5790 5791 5792 5794 5795 5796 5797 5798 5798
5569 5570 5571 5572 5573 5575 5577 5579 5582 5585 5587 5589 5591 5593 5596 5601 5606 5610 5615 5620 5623 5627 5631 5635 5639 5643 5646 5649 5652 5656 5660 5664 5666 5669 5672 5676 5679 5683 5687 5691 5695 5699 5703 5706 5710 5713 5717 5721 5725 5727 5730 5732 5735 5738 5742 5745 5747 5749 5752 5754 5757 5759 5760 5762 5763 5765 5769 5773 5775 5777 5778 5780 5781 5783 5784 5785 5785 5786 5787 5788 5789 5790 5792 5794 5795 5795 5796 5796
5566 5566 5568 5569 5571 5573 5575 5577 5580 5583 5584 5586 5588 5591 5595 5600 5604 5608 5612 5616 5620 5623 5628 5632 5636 5640 5643 5645 5648 5653 5657 5660 5663 5665 5668 5673 5677 5680 5684 5688 5692 5695 5700 5704 5708 5711 5714 5718 5720 5723 5726 5729 5732 5736 5739 5742 5744 5746 5749 5751 5754 5756 5758 5760 5760 5763 5768 5771 5773 5775 5776 5777 5778 5780 5781 5782 5783 5784 5785 5786 5787 5789 5791 5792 5793 5793 5794 5794
5563 5564 5566 5568 5569 5571 5573 5576 5579 5581 5582 5583 5586 5591 5595 5599 5603 5606 5609 5613 5616 5620 5625 5629 5632 5636 5638 5641 5644 5649 5653 5656 5659 5662 5665 5670 5674 5677 5681 5685 5689 5693 5697 5702 5705 5708 5711 5714 5717 5720 5723 5727 5730 5733 5736 5739 5741 5744 5746 5749 5752 5755 5756 5757 5758 5762 5767 5769 5771 5772 5774 5775 5775 5777 5779 5780 5781 5783 5784 5785 5785 5787 5788 5789 5790 5791 5792 5792
5562 5563 5565 5566 5568 5570 5572 5574 5577 5578 5580 5582 5586 5590 5594 5597 5601 5604 5607 5610 5614 5618 5622 5625 5630 5633 5634 5637 5642 5646 5649 5652 5656 5659 5662 5667 5671 5675 5679 5682 5686 5690 5694 5698 5701 5704 5707 5711 5715 5718 5721 5724 5727 5731 5734 5737 5739 5741 5744 5747 5750 5752 5754 5754 5756 5761 5765 5767 5769 5770 5771 5771 5773 5775 5777 5778 5780 5781 5782 5783 5784 5785 5786 5787 5788 5789 5790 5790
5561 5562 5564 5565 5566 5568 5570 5572 5574 5576 5578 5582 5585 5588 5592 5595 5598 5601 5604 5607 5611 5615 5619 5623 5627 5629 5631 5636 5641 5644 5647 5651 5654 5656 5660 5664 5668 5672 5676 5679 5684 5687 5691 5695 5698 5701 5704 5708 5712 5715 5718 5721 5724 5728 5731 5734 5736 5739 5743 5745 5747 5749 5751 5753 5755 5759 5763 5765 5766 5767 5768 5769 5771 5773 5774 5776 5778 5779 5780 5781 5782 5783 5784 5785 5786 5787 5788 5788
5560 5561 5563 5564 5565 5567 5569 5570 5572 5574 5577 5580 5583 5586 5590 5593 5595 5598 5601 5605 5609 5614 5617 5621 5625 5627 5630 5636 5640 5642 5647 5649 5651 5654 5658 5661 5665 5668 5672 5676 5680 5685 5688 5692 5695 5698 5701 5705 5708 5712 5715 5718 5722 5726 5729 5732 5735 5738 5742 5744 5745 5747 5749 5751 5753 5756 5760 5763 5764 5765 5766 5767 5769 5771 5773 5774 5775 5776 5778 5779 5781 5781 5782 5783 5784 5784 5785 5786
5559 5560 5561 5562 5564 5566 5567 5569 5570 5573 5575 5578 5581 5583 5587 5589 5592 5595 5599 5604 5609 5612 5615 5619 5622 5624 5629 5634 5637 5641 5646 5647 5649 5653 5656 5659 5662 5666 5670 5674 5678 5682 5686 5690 5694 5697 5700 5703 5706 5710 5713 5717 5721 5725 5728 5730 5733 5737 5740 5741 5743 5745 5747 5749 5751 5753 5757 5760 5762 5763 5764 5766 5767 5769 5771 5772 5773 5774 5776 5777 5778 5779 5780 5781 5781 5782 5783 5783
5558 5559 5560 5561 5562 5564 5566 5567 5569 5571 5574 5576 5579 5581 5584 5587 5590 5594 5598 5603 5608 5610 5613 5617 5620 5623 5627 5631 5635 5639 5642 5644 5648 5652 5654 5657 5660 5664 5668 5673 5676 5679 5683 5688 5692 5696 5697 5700 5704 5707 5711 5716 5719 5722 5725 5728 5732 5735 5737 5738 5740 5743 5745 5747 5749 5751 5754 5757 5759 5761 5763 5764 5766 5768 5770 5771 5772 5773 5774 5775 5776 5777 5778 5779 5780 5780 5781 5782
5556 5557 5558 5559 5561 5562 5564 5565 5567 5570 5572 5575 5577 5579 5582 5586 5590 5593 5597 5602 5606 5608 5612 5615 5618 5622 5625 5629 5634 5637 5639 5641 5645 5649 5652 5655 5658 5662 5666 5670 5673 5676 5679 5684 5689 5693 5694 5697 5701 5705 5709 5712 5715 5718 5721 5725 5729 5732 5734 5735 5738 5741 5743 5745 5746 5748 5751 5754 5757 5758 5760 5763 5765 5766 5767 5769 5771 5772 5772 5773 5774 5775 5776 5777 5778 5779 5779 5780
5555 5556 5557 5557 5558 5560 5561 5563 5565 5568 5570 5573 5576 5579 5582 5586 5589 5592 5596 5601 5604 5606 5610 5614 5616 5620 5624 5628 5632 5635 5636 5639 5643 5646 5648 5652 5656 5659 5663 5666 5669 5671 5675 5681 5685 5689 5691 5694 5699 5702 5706 5709 5711 5715 5718 5721 5724 5727 5729 5732 5735 5738 5740 5742 5743 5745 5748 5751 5754 5756 5758 5761 5762 5763 5764 5767 5769 5770 5771 5772 5772 5773 5774 5775 5776 5777 5777 5777
5553 5553 5554 5555 5556 5557 5559 5561 5563 5566 5569 5572 5575 5578 5582 5584 5587 5591 5596 5600 5603 5605 5608 5611 5614 5619 5623 5627 5630 5633 5635 5638 5640 5643 5647 5651 5654 5658 5662 5665 5667 5670 5674 5679 5683 5685 5688 5693 5697 5700 5703 5706 5709 5712 5715 5717 5721 5723 5725 5728 5731 5734 5736 5738 5740 5742 5745 5749 5751 5753 5756 5758 5758 5760 5762 5764 5766 5768 5769 5770 5771 5772 5773 5774 5774 5774 5774 5774
5551 5551 5552 5553 5554 5556 5558 5560 5562 5565 5568 5571 5574 5578 5580 5583 5587 5592 5595 5598 5601 5604 5606 5609 5613 5617 5621 5624 5627 5630 5634 5637 5639 5642 5646 5650 5654 5657 5661 5664 5667 5671 5676 5679 5681 5683 5686 5691 5694 5698 5701 5704 5707 5710 5712 5715 5719 5721 5723 5725 5728 5731 5733 5735 5737 5740 5743 5747 5749 5751 5754 5754 5754 5757 5759 5760 5763 5765 5767 5768 5770 5771 5771 5772 5772 5771 5771 5772
5548 5549 5550 5552 5553 5555 5557 5559 5562 5565 5567 5570 5573 5576 5579 5583 5587 5591 5595 5597 5600 5602 5604 5607 5611 5615 5619 5622 5625 5628 5631 5635 5638 5642 5645 5648 5652 5655 5659 5662 5665 5670 5675 5679 5680 5682 5685 5689 5693 5697 5699 5702 5706 5709 5711 5714 5717 5720 5723 5725 5728 5730 5732 5733 5736 5739 5743 5745 5747 5749 5750 5749 5751 5754 5756 5758 5760 5762 5764 5766 5767 5768 5768 5769 5769 5769 5769 5769
5546 5548 5549 5550 5552 5555 5557 5559 5561 5564 5566 5569 5572 5575 5579 5584 5587 5590 5593 5596 5598 5599 5602 5605 5609 5613 5616 5619 5623 5626 5630 5634 5637 5640 5644 5648 5651 5654 5657 5661 5664 5668 5673 5676 5678 5681 5685 5688 5692 5695 5698 5701 5705 5707 5710 5713 5715 5719 5722 5725 5727 5729 5730 5733 5735 5738 5741 5743 5744 5745 5746 5746 5748 5751 5754 5755 5757 5759 5761 5762 5764 5765 5765 5766 5766 5766 5767 5767
5545 5547 5548 5550 5552 5555 5556 5558 5561 5563 5566 5569 5573 5577 5581 5584 5587 5590 5592 5594 5596 5597 5600 5604 5608 5611 5615 5618 5621 5624 5629 5633 5636 5639 5643 5647 5651 5654 5657 5660 5663 5668 5672 5674 5676 5680 5683 5687 5691 5694 5697 5700 5702 5705 5708 5711 5714 5717 5720 5723 5726 5727 5729 5731 5733 5736 5738 5739 5740 5742 5743 5744 5746 5749 5751 5753 5754 5756 5758 5760 5760 5761 5762 5762 5763 5764 5764 5765
5545 5546 5548 5550 5552 5554 5556 5558 5561 5564 5567 5570 5574 5578 5581 5584 5587 5590 5591 5592 5595 5597 5599 5603 5607 5610 5613 5616 5619 5623 5627 5631 5635 5638 5642 5646 5649 5652 5655 5659 5662 5667 5671 5674 5676 5679 5683 5686 5689 5692 5696 5698 5700 5703 5705 5709 5713 5716 5719 5721 5724 5725 5726 5728 5731 5733 5735 5736 5737 5738 5740 5742 5744 5747 5748 5750 5752 5754 5756 5757 5757 5758 5759 5759 5760 5761 5762 5762
5544 5546 5548 5550 5552 5554 5556 5558 5561 5564 5568 5572 5575 5578 5581 5584 5586 5589 5590 5593 5596 5598 5600 5603 5607 5609 5613 5616 5620 5623 5626 5630 5633 5637 5641 5645 5648 5651 5654 5657 5660 5665 5669 5672 5675 5678 5682 5685 5687 5690 5693 5696 5698 5701 5703 5706 5710 5714 5717 5720 5721 5722 5724 5726 5728 5729 5732 5734 5734 5735 5737 5739 5741 5744 5746 5748 5750 5751 5753 5753 5754 5755 5756 5757 5758 5759 5760 5760
5544 5546 5548 5550 5552 5554 5556 5559 5562 5566 5570 5573 5576 5578 5581 5584 5586 5589 5591 5593 5596 5598 5600 5603 5607 5609 5613 5617 5621 5623 5626 5630 5633 5636 5640 5643 5646 5649 5652 5655 5659 5663 5666 5670 5673 5676 5680 5683 5685 5688 5691 5694 5696 5699 5701 5705 5708 5711 5713 5716 5717 5719 5721 5723 5725 5727 5729 5731 5732 5733 5734 5736 5739 5742 5744 5745 5747 5749 5750 5751 5752 5753 5754 5756 5756 5757 5757 5758
5543 5546 5548 5550 5552 5555 5557 5560 5563 5567 5571 5573 5576 5579 5582 5584 5587 5590 5591 5593 5596 5599 5601 5604 5607 5610 5613 5617 5620 5623 5626 5630 5634 5637 5640 5643 5645 5648 5650 5654 5658 5661 5664 5667 5669 5673 5678 5681 5683 5686 5689 5692 5694 5697 5700 5703 5706 5709 5710 5712 5714 5716 5719 5721 5723 5725 5726 5728 5730 5730 5732 5735 5737 5739 5741 5743 5744 5746 5747 5749 5750 5751 5752 5754 5754 5754 5755 5755
5543 5545 5547 5550 5552 5555 5558 5561 5565 5568 5571 5574 5576 5579 5582 5584 5587 5590 5591 5593 5597 5600 5602 5604 5607 5610 5613 5616 5620 5624 5627 5629 5633 5636 5639 5642 5644 5647 5649 5653 5657 5660 5662 5664 5666 5670 5674 5678 5681 5684 5687 5690 5692 5695 5699 5701 5704 5707 5709 5711 5713 5715 5717 5719 5721 5722 5723 5725 5727 5728 5730 5733 5735 5736 5739 5741 5742 5743 5745 5746 5748 5749 5750 5751 5751 5752 5752 5752
5542 5545 5547 5550 5552 5555 5558 5562 5566 5568 5571 5574 5577 5579 5582 5585 5587 5589 5591 5594 5597 5600 5603 5605 5608 5611 5614 5617 5621 5624 5627 5629 5632 5635 5638 5641 5643 5646 5649 5652 5656 5658 5661 5663 5665 5669 5672 5675 5678 5681 5684 5687 5690 5693 5696 5699 5701 5704 5706 5708 5710 5712 5714 5716 5718 5719 5721 5722 5724 5725 5727 5729 5731 5734 5736 5738 5739 5740 5742 5743 5745 5746 5747 5748 5749 5749 5749 5749
5543 5545 5548 5550 5552 5555 5559 5563 5566 5568 5571 5574 5577 5579 5582 5585 5587 5590 5592 5595 5597 5600 5603 5606 5608 5611 5615 5618 5622 5625 5627 5629 5632 5635 5638 5640 5643 5645 5648 5651 5654 5657 5660 5662 5665 5667 5670 5673 5675 5678 5682 5685 5687 5691 5694 5696 5699 5701 5703 5705 5707 5709 5711 5713 5715 5717 5718 5720 5721 5723 5724 5726 5729 5732 5734 5735 5736 5737 5739 5740 5742 5744 5745 5746 5746 5746 5746 5746
5543 5546 5548 5551 5553 5557 5560 5563 5566 5568 5571 5574 5576 5579 5583 5585 5588 5591 5593 5596 5598 5600 5604 5606 5609 5612 5615 5618 5622 5625 5627 5630 5632 5635 5637 5640 5642 5645 5648 5650 5653 5656 5659 5662 5664 5666 5669 5671 5673 5676 5679 5681 5684 5688 5690 5693 5695 5698 5700 5702 5705 5707 5708 5710 5712 5714 5716 5717 5719 5720 5722 5724 5728 5730 5732 5733 5734 5735 5736 5738 5739 5741 5742 5743 5743 5743 5743 5744
5543 5545 5548 5551 5554 5557 5560 5563 5566 5568 5571 5574 5576 5579 5583 5585 5588 5591 5594 5596 5599 5601 5604 5607 5609 5612 5615 5618 5622 5625 5627 5630 5633 5635 5637 5640 5642 5645 5648 5650 5653 5656 5659 5661 5664 5666 5669 5671 5672 5674 5677 5679 5682 5685 5688 5691 5693 5695 5698 5700 5703 5705 5706 5708 5710 5711 5713 5715 5717 5718 5720 5722 5725 5728 5729 5731 5732 5733 5734 5735 5737 5738 5739 5739 5740 5740 5740 5741
5542 5545 5548 5551 5554 5557 5560 5562 5565 5568 5571 5574 5576 5579 5583 5585 5588 5592 5594 5597 5599 5601 5604 5608 5610 5613 5616 5619 5622 5624 5627 5630 5633 5636 5638 5639 5642 5644 5647 5650 5652 5655 5658 5661 5663 5666 5668 5670 5672 5674 5677 5679 5682 5684 5687 5689 5692 5694 5696 5699 5701 5703 5704 5706 5707 5709 5711 5713 5715 5717 5719 5721 5723 5725 5727 5728 5729 5730 5731 5733 5734 5735 5736 5736 5736 5737 5737 5738
5542 5546 5549 5551 5554 5557 5559 5562 5564 5568 5571 5573 5576 5580 5583 5585 5588 5592 5595 5597 5600 5602 5605 5608 5611 5613 5616 5619 5622 5624 5627 5630 5633 5636 5638 5640 5642 5644 5646 5649 5652 5654 5657 5660 5662 5665 5667 5669 5671 5673 5676 5678 5681 5683 5686 5688 5690 5692 5695 5697 5699 5700 5702 5704 5705 5707 5709 5711 5713 5715 5717 5719 5721 5723 5725 5726 5727 5728 5729 5731 5731 5732 5733 5733 5734 5734 5734 5735
5542 5546 5548 5551 5554 5557 5559 5562 5564 5567 5570 5573 5577 5581 5583 5585 5589 5592 5596 5598 5601 5603 5606 5608 5611 5614 5616 5619 5622 5624 5627 5630 5632 5635 5637 5640 5642 5644 5646 5649 5651 5654 5657 5659 5661 5664 5666 5668 5670 5672 5675 5677 5680 5682 5684 5686 5688 5690 5692 5694 5697 5698 5700 5702 5704 5705 5707 5709 5711 5713 5715 5717 5719 5721 5722 5723 5724 5726 5727 5728 5729 5729 5730 5731 5731 5731 5732 5732
5542 5545 5547 5549 5553 5555 5558 5561 5564 5566 5569 5574 5578 5581 5584 5586 5590 5593 5597 5599 5602 5605 5607 5609 5611 5614 5616 5619 5622 5624 5627 5629 5632 5634 5637 5640 5642 5644 5646 5649 5651 5654 5656 5659 5661 5663 5666 5668 5669 5671 5673 5676 5678 5680 5682 5684 5686 5688 5690 5692 5694 5697 5698 5700 5702 5703 5705 5707 5709 5710 5712 5714 5716 5718 5720 5721 5722 5723 5724 5725 5726 5726 5727 5728 5728 5728 5729 5730
5541 5544 5547 5549 5552 5554 5558 5561 5564 5567 5570 5575 5579 5582 5585 5587 5591 5594 5597 5600 5602 5605 5607 5609 5612 5614 5616 5619 5621 5624 5626 5629 5632 5634 5637 5639 5642 5644 5646 5648 5650 5652 5655 5657 5660 5662 5665 5667 5668 5670 5672 5674 5676 5678 5680 5682 5684 5686 5688 5690 5692 5694 5696 5698 5700 5701 5703 5705 5706 5708 5710 5712 5714 5716 5717 5718 5719 5720 5721 5722 5723 5724 5725 5725 5725 5726 5726 5727
5542 5545 5547 5549 5551 5555 5558 5562 5565 5568 5571 5575 5580 5582 5585 5588 5591 5594 5597 5600 5602 5604 5607 5609 5612 5614 5616 5618 5621 5623 5626 5628 5631 5633 5636 5638 5641 5643 5645 5647 5649 5651 5653 5656 5658 5661 5663 5665 5667 5669 5671 5673 5675 5676 5678 5680 5682 5684 5686 5688 5689 5692 5694 5696 5698 5699 5701 5703 5704 5706 5708 5710 5711 5713 5714 5716 5717 5717 5718 5719 5720 5722 5722 5723 5722 5723 5724 5725
5542 5544 5547 5549 5552 5555 5558 5561 5565 5568 5571 5575 5579 5581 5584 5587 5590 5594 5597 5599 5602 5604 5606 5609 5611 5614 5616 5618 5620 5623 5626 5628 5630 5632 5635 5637 5639 5642 5644 5646 5648 5650 5652 5654 5656 5658 5661 5663 5665 5667 5669 5671 5672 5674 5676 5678 5680 5682 5683 5685 5687 5689 5691 5693 5695 5697 5698 5700 5702 5704 5705 5707 5708 5710 5711 5713 5714 5715 5716 5717 5718 5719 5720 5720 5720 5720 5721 5722